Airfield :
LOGIN :

Register | Disclaimer

   EN    FR    IT 

 










Legend :    VFR   Marginal VFR   IFR   Intensive IFR   Very Intensive IFR
Visi :
Ceiling :
>= 8 km
>= 3000ft
5 to 8 km
1000 to 3000 ft
1500m to 5 km
500 to 1000 ft
800 to 1500m
200 to 500 ft
< 800m
< 200 ft
Symbols :   Thunderstorms  Fog  Heavy snow  Heavy precipitations  Wind > 20 kt
SIGMETs :     Misc.  Thunderstorms  Icing  Turbulence  Mountain Waves  Volcanic Ashes







- Airport Elevation : 19 ft
- IATA code : LCY
- Download approach charts


EGLC - London City

CURRENT METAR :
  • 262350Z AUTO 32005KT 270V350 9999 SCT044 09/03 Q1034

EXPIRED METARs :
  • 262320Z AUTO VRB03KT 9999 BKN044 09/03 Q1033
  • 262250Z AUTO VRB01KT 9999 BKN043 09/03 Q1033
  • 262220Z AUTO 00000KT 9999 BKN047 09/03 Q1033
  • 262150Z AUTO VRB01KT 9999 BKN048 09/03 Q1033
  • 262120Z AUTO 24004KT 9999 NCD 09/02 Q1033

Expired Forecast.
ATIS : +44 20 7646 0224
No reported NOTAMs for that airfield.



MET'MAP, your aeronautical weather chart ! - Copyright ORBIFLY December 2007 - Disclaimer

ORBIFLY MET'MAP TEAM :

Programming & Development : Alexandra Zaïnal
Concept & Development : Baudouin d'Aumeries
Co-Development & Prog : Marc-Olivier Méhu
Technical & hardware support : Manuel Goepfert

Contact : metmap@orbifly.com




SOURCES & CREDITS :

   NOAA